Track NEE 02 KRYSAOR now! 10-day predictions NEE 02 KRYSAOR is classified as:
1 39441U 13066AB 21022.88072985 .00000212 00000-0 37091-4 0 9990 2 39441 97.6666 356.9828 0081583 359.1468 0.9590 14.75111725384759